Location: Clandonald
(53.5720°N, 110.7141°W)
Time: 09:21:43
(UTC+00:00)

ISS - Visible Passes

Search period start: 20 March 2019 00:00
Search period end: 30 March 2019 00:00
Orbit: 406 x 411 km, 51.6° (Epoch: 20 March)

Date Brightness Start Highest point End Pass type
(mag) Time Alt. Az. Time Alt. Az. Time Alt. Az.
22 Mar -1.3 03:12:40 10° S 03:12:53 11° S 03:12:53 11° S visible
23 Mar -1.6 03:56:35 10° SW 03:57:29 16° SSW 03:57:29 16° SSW visible
24 Mar -2.6 03:05:58 10° SSW 03:08:41 24° SSE 03:09:05 23° SE visible
24 Mar -0.9 04:41:37 10° WSW 04:41:51 12° WSW 04:41:51 12° WSW visible
25 Mar -2.0 02:15:36 10° S 02:17:50 17° SE 02:20:04 10° ESE visible
25 Mar -3.1 03:50:41 10° WSW 03:53:15 40° SSW 03:53:15 40° SSW visible
26 Mar -3.1 02:59:50 10° SW 03:02:54 37° SSE 03:04:32 22° ESE visible
26 Mar -1.6 04:35:57 10° W 04:37:16 22° WSW 04:37:16 22° WSW visible
27 Mar -3.8 03:44:56 10° WSW 03:48:12 59° S 03:48:25 57° SSE visible
28 Mar -3.5 02:53:57 10° WSW 02:57:10 51° SSE 02:59:29 17° E visible
28 Mar -2.2 04:30:18 10° W 04:32:13 31° WSW 04:32:13 31° WSW visible
29 Mar -3.8 03:39:14 10° W 03:42:30 63° S 03:43:12 47° SE visible
29 Mar -0.7 05:15:45 10° W 05:15:56 11° W 05:15:56 11° W visible
